Torna al catalogo

YAOGAN-39 04A

AttivoMilitareVLEO
NORAD 58141·PAYLOAD·🇨🇳 China

Lanciato Oct 23, 2023 da Xichang Satellite Launch Center

Loading…

Prossimi Passaggi (prossime 24 ore)

TLE

AggiornatoSource: Space-Track

Epoca: Sep 14, 2026, 09:12 UTC

1 58141U 23163A   26257.38370759  .00006691  00000-0  27889-3 0  9997
2 58141  34.9996 143.7840 0003621  87.1462 272.9667 15.23014469161189

Traccia YAOGAN-39 04A in tempo reale con AllMySat

Download on the App Store